This is the latest recevied weather packets stored in our database for station/object DL9NEE-10. If no packets are shown the sender has not sent any weather packets the latest 10 day(s).
| Time | Temp. | Humidity | Pressure | Rain* | Wind** | Luminosity | Snow |
|---|---|---|---|---|---|---|---|
| 1777865055 | 16.67° C | 50% | 1015.9 hPa | - | - | - | - |
| 1777864154 | 16.67° C | 49% | 1016.1 hPa | - | - | - | - |
| 1777863254 | 17.22° C | 49% | 1016 hPa | - | - | - | - |
| 1777862354 | 17.22° C | 49% | 1016 hPa | - | - | - | - |
| 1777861454 | 17.78° C | 48% | 1016 hPa | - | - | - | - |
| 1777860554 | 17.78° C | 46% | 1015.9 hPa | - | - | - | - |
| 1777859654 | 18.33° C | 45% | 1015.6 hPa | - | - | - | - |
| 1777857853 | 18.33° C | 44% | 1015.8 hPa | - | - | - | - |
| 1777856952 | 18.89° C | 44% | 1015.8 hPa | - | - | - | - |
| 1777856052 | 18.89° C | 44% | 1015.7 hPa | - | - | - | - |
| 1777855151 | 19.44° C | 43% | 1015.8 hPa | - | - | - | - |
| 1777854251 | 19.44° C | 43% | 1015.7 hPa | - | - | - | - |
| 1777853351 | 20° C | 43% | 1015.6 hPa | - | - | - | - |
| 1777852451 | 20° C | 42% | 1015.9 hPa | - | - | - | - |
| 1777851551 | 20° C | 42% | 1015.8 hPa | - | - | - | - |
| 1777850651 | 20° C | 42% | 1015.8 hPa | - | - | - | - |
| 1777849750 | 20.56° C | 42% | 1015.7 hPa | - | - | - | - |
| 1777848850 | 20.56° C | 42% | 1015.5 hPa | - | - | - | - |
| 1777847950 | 21.11° C | 42% | 1015.5 hPa | - | - | - | - |
| 1777847050 | 20.56° C | 42% | 1015.3 hPa | - | - | - | - |
| 1777846150 | 21.11° C | 43% | 1015 hPa | - | - | - | - |
| 1777845250 | 21.11° C | 42% | 1014.8 hPa | - | - | - | - |
| 1777844350 | 21.67° C | 43% | 1014.7 hPa | - | - | - | - |
| 1777843449 | 21.67° C | 43% | 1014.5 hPa | - | - | - | - |
| 1777842549 | 21.67° C | 42% | 1014.4 hPa | - | - | - | - |
* Rain since midnight (hover to see other rain measurements)
** Current wind speed in m/s (hover to see current wind gust speed)